DW4152 Weather Reports


Display with metric or nautical units.
time (UTC)temp
F
wind
direction
speed
MPH
gust
MPH
rain 1hr
in
rain 24hr
in
rain mn
in
humidity
%
barometer
mb
20260506084516 64 273 0.0 2.0 0.00 0.00 0.00 74 1012.4
20260506083033 64 223 0.0 1.0 0.00 0.00 0.00 74 1012.6
20260506081615 64 218 0.0 2.0 0.00 0.00 0.00 74 1012.7
20260506073012 64 296 0.0 1.0 0.00 0.00 0.00 75 1012.4
20260506071513 64 308 0.0 0.0 0.00 0.00 0.00 76 1012.4
20260506061505 65 350 0.0 1.0 0.00 0.00 0.00 76 1012.9
20260506050103 66 325 0.0 0.0 0.00 0.00 0.00 74 1013.2
20260506044610 66 331 0.0 3.0 0.00 0.00 0.00 74 1013.2
20260506043057 67 286 0.0 1.0 0.00 0.00 0.00 73 1013.4
20260506041554 67 250 0.0 0.0 0.00 0.00 0.00 72 1013.4
20260506040051 68 248 0.0 1.0 0.00 0.00 0.00 71 1013.0
20260506034551 68 212 0.0 1.0 0.00 0.00 0.00 70 1013.0
20260506033048 68 207 0.0 4.0 0.00 0.00 0.00 69 1013.1
20260506031550 68 305 0.0 2.0 0.00 0.00 0.00 67 1013.1
20260506030048 69 306 0.0 0.0 0.00 0.00 0.00 64 1013.2
20260506024547 69 304 0.0 0.0 0.00 0.00 0.00 61 1013.2
20260506023047 69 304 0.0 0.0 0.00 0.00 0.00 61 1013.2
20260506021555 68 304 0.0 0.0 0.00 0.00 0.00 62 1013.2
20260506020045 68 304 0.0 0.0 0.00 0.00 0.00 61 1013.2
20260506014545 69 304 0.0 0.0 0.00 0.00 0.00 61 1013.1
20260506013046 70 304 0.0 0.0 0.00 0.00 0.00 59 1013.0
20260506011549 71 304 0.0 0.0 0.00 0.00 0.00 57 1012.7
20260506010048 72 304 0.0 0.0 0.00 0.00 0.00 54 1012.6
20260506004542 73 304 0.0 0.0 0.00 0.00 0.00 52 1012.5
20260506003042 74 304 0.0 0.0 0.00 0.00 0.00 50 1012.4
20260506001541 75 304 0.0 0.0 0.00 0.00 0.00 49 1012.3
20260506000041 76 304 0.0 0.0 0.00 0.00 0.00 47 1012.2
20260505234603 76 304 0.0 0.0 0.00 0.00 0.00 45 1011.9
20260505233040 77 304 0.0 2.0 0.00 0.00 0.00 45 1011.8
20260505231539 78 304 0.0 4.0 0.00 0.00 0.00 43 1011.7
20260505230042 79 344 0.0 2.0 0.00 0.00 0.00 43 1011.7
20260505224536 79 331 0.0 2.0 0.00 0.00 0.00 44 1011.8
20260505223036 80 307 0.0 2.0 0.00 0.00 0.00 42 1012.0
20260505221534 80 267 0.0 3.0 0.00 0.00 0.00 43 1012.1
20260505220033 81 279 0.0 4.0 0.00 0.00 0.00 42 1012.1
20260505214544 80 271 0.0 3.0 0.00 0.00 0.00 42 1012.1
20260505213031 81 245 0.0 2.0 0.00 0.00 0.00 41 1012.3
20260505211540 82 234 1.0 3.0 0.00 0.00 0.00 39 1012.4
20260505210031 82 257 1.0 6.0 0.00 0.00 0.00 38 1012.2
20260505204530 82 255 1.0 4.0 0.00 0.00 0.00 39 1012.3
20260505203039 82 266 0.0 8.0 0.00 0.00 0.00 41 1012.2
20260505201526 83 251 0.0 2.0 0.00 0.00 0.00 40 1012.3
20260505200024 82 249 0.0 5.0 0.00 0.00 0.00 40 1012.8
20260505194523 82 269 0.0 5.0 0.00 0.00 0.00 41 1013.0
20260505193021 83 209 0.0 3.0 0.00 0.00 0.00 39 1013.1
20260505191519 83 224 0.0 7.0 0.00 0.00 0.00 41 1013.4
20260505190015 83 229 0.0 3.0 0.00 0.00 0.00 41 1013.7
20260505184523 82 263 0.0 2.0 0.00 0.00 0.00 40 1014.0
20260505183013 81 231 0.0 5.0 0.00 0.00 0.00 40 1014.1
20260505181511 82 223 0.0 2.0 0.00 0.00 0.00 40 1014.3
20260505180011 82 286 0.0 7.0 0.00 0.00 0.00 38 1014.5
20260505174509 82 295 0.0 3.0 0.00 0.00 0.00 39 1014.7
20260505173008 81 245 0.0 4.0 0.00 0.00 0.00 39 1014.5
20260505171508 81 231 0.0 5.0 0.00 0.00 0.00 41 1014.7
20260505170010 80 240 0.0 4.0 0.00 0.00 0.00 39 1015.0
20260505164506 80 234 0.0 4.0 0.00 0.00 0.00 42 1015.1
20260505163100 79 235 1.0 6.0 0.00 0.00 0.00 42 1015.1
20260505161555 78 251 0.0 2.0 0.00 0.00 0.00 45 1015.3
20260505153053 75 178 0.0 4.0 0.00 0.00 0.00 51 1015.5
20260505151548 74 222 0.0 4.0 0.00 0.00 0.00 51 1015.6
20260505124518 59 330 0.0 0.0 0.00 0.00 0.00 84 1015.7
20260505123014 57 330 0.0 0.0 0.00 0.00 0.00 87 1015.6
20260505121513 56 330 0.0 0.0 0.00 0.00 0.00 89 1015.7
20260505120015 54 330 0.0 0.0 0.00 0.00 0.00 92 1015.6
20260505114509 53 330 0.0 0.0 0.00 0.00 0.00 92 1015.5
20260505113007 53 330 0.0 0.0 0.00 0.00 0.00 91 1015.3
20260505111515 52 330 0.0 0.0 0.00 0.00 0.00 91 1015.3
20260505101604 53 330 0.0 0.0 0.00 0.00 0.00 88 1015.0
20260505100100 53 330 0.0 0.0 0.00 0.00 0.00 86 1015.1
20260505094601 54 330 0.0 0.0 0.00 0.00 0.00 84 1014.9
20260505093055 55 330 0.0 0.0 0.00 0.00 0.00 83 1014.6
20260505091549 55 330 0.0 0.0 0.00 0.00 0.00 81 1014.5
20260505090044 56 330 0.0 0.0 0.00 0.00 0.00 79 1014.4